Location: P�rn�nmaa
(61.1833°N, 23.0000°E)
Time: 17:05:24
(UTC+00:00)

Cosmos 1666 - Pass Details

Date: 08 December 2019
Orbit: 498 x 521 km, 82.5° (Epoch: 22 January)

Event Time Altitude Azimuth Distance (km) Brightness Sun altitude
Rises 14:15:30 0° 350° (N) 2,627 6.0 -6.3°
Reaches altitude 10° 14:18:31 10° 16° (NNE) 1,732 4.9 -6.5°
Maximum altitude 14:20:36 14° 50° (NE) 1,482 4.4 -6.7°
Drops below altitude 10° 14:22:41 10° 83° (E) 1,720 4.8 -6.9°
Sets 14:25:39 0° 109° (ESE) 2,596 5.9 -7.2°
